Showing default

OPS 9343 (IDSCS 21), 3286

Orbit data source: Space-Track

OPS 9343 (IDSCS 21), 3286 is a payload satellite owned by SAMSO (US) in GEO that was launched on Thu, 13 Jun 1968 UTC via a TITAN IIIC launch vehicle from the Air Force Eastern Test Range (AFETR). Payload-class satellites include a variety of spacecraft equipped with specific instruments for various scientific and technological missions. These include communications satellites like Starlink; space stations such as the ISS; scientific satellites like the Hubble; Earth observation satellites from companies like Planet Labs, Umbra, and HawkEye 360; GPS; miniature CubeSats for education and research; and military/defense satellites.

Loading next visibility...
Identifier
3286, 1968-050C
Orbit
GEO
Country
Flag of USUS
Related business
Manufacturer
Philco-Ford
Mission
Non-operational spacecraft
Bus & Motor
IDCSP, Unknown motor
Mass
45 kg wet, 45 kg dry
Launch date (UTC)
1968-06-13 (58 years ago)
Launch vehicle
TITAN IIIC
Launch site
Air Force Eastern Test Range (AFETR)
Object type
Payload
Rocket body
Debris
Shape & HBR
Unknown
Radar Cross Section
Medium (>0.1 m² and <1 m²)

Expand to show TLE details & history
Last TLE update: 16 hours ago

TLE from 16 hours ago
0 OPS 9343 (IDSCS 21)
1 03286U 68050C   26033.97299463 -.00000118  00000-0  00000-0 0  9992
2 03286   6.9462  53.1797 0018655 152.8252 199.1012  1.07758394 46007
Epoch: 2026-02-02T23:21Z
TLE epoch observation values (Epoch: 2026-02-02T23:21:06.736Z)
Latitude
-0.99834°
Longitude
-78.31765°
Altitude
33,880.393 km
Speed
3.144 km/s
True Right ascension
03h 00m 29s
True Declination
0° 59' 50"
Sunlit
Object was in daylight at epoch
Visualization orbit readout
Latitude
Unknown
Longitude
Unknown
Altitude
Unknown
Speed
Unknown
Apparent Right ascension
Unknown
Apparent Declination
Unknown
Sunlit
N/A
Visualization observer readout
Local Sidereal Time
16:47:02
Azimuth
Unknown
Elevation
Unknown
Doppler factor
Unknown
Orbital elements
Apogee altitude
33,886.369 km
Perigee altitude
33,736.422 km
Semi-major axis
40,189.532 km
Eccentricity
0.00187
Inclination
6.9462°
RAAN
53.1797°
Arg. of periapsis
152.8252°
True anomaly
199.0314°
Mean anomaly
199.1012°
Eccentric anomaly
199.06628°
Mean motion
0.26939 °/min
Orbital period
1,336.38 mins
BSTAR
0
Loading maneuver chart data...
Computing Atmospheric mass density...
Loading historical data...
Loading historical data...
Loading historical data...
Loading historical data...
Loading historical data...
Loading historical data...
Loading historical data...

Documentation

Showing up to 5 results
|